This is the latest recevied weather packets stored in our database for station/object K4GSL. If no packets are shown the sender has not sent any weather packets the latest 10 day(s).
| Time | Temp. | Humidity | Pressure | Rain* | Wind** | Luminosity | Snow |
|---|---|---|---|---|---|---|---|
| 1778021457 | 17.78° C | 74% | 1020 hPa | 0 mm | - | 209 W/m² | - |
| 1778021154 | 17.22° C | 76% | 1020.1 hPa | 0 mm | - | 223 W/m² | - |
| 1778020851 | 17.22° C | 76% | 1019.9 hPa | 0 mm | - | 255 W/m² | - |
| 1778020548 | 17.22° C | 76% | 1020 hPa | 0 mm | - | 201 W/m² | - |
| 1778020244 | 17.78° C | 75% | 1020.1 hPa | 0 mm | - | 208 W/m² | - |
| 1778019941 | 17.22° C | 75% | 1020.1 hPa | 0 mm | - | 192 W/m² | - |
| 1778019637 | 17.22° C | 76% | 1020.1 hPa | 0 mm | - | 181 W/m² | - |
| 1778019334 | 16.67° C | 76% | 1020.3 hPa | 0 mm | - | 162 W/m² | - |
| 1778019030 | 17.22° C | 75% | 1019.9 hPa | 0 mm | - | 167 W/m² | - |
| 1778018728 | 17.78° C | 74% | 1020 hPa | 0 mm | - | 186 W/m² | - |
| 1778018426 | 17.22° C | 76% | 1020.2 hPa | 0 mm | - | 212 W/m² | - |
| 1778018124 | 17.22° C | 76% | 1020.3 hPa | 0 mm | - | 191 W/m² | - |
| 1778017821 | 16.67° C | 77% | 1020.2 hPa | 0 mm | - | 173 W/m² | - |
| 1778017519 | 17.22° C | 76% | 1020.2 hPa | 0 mm | - | 194 W/m² | - |
| 1778017216 | 17.22° C | 75% | 1020.1 hPa | 0 mm | - | 206 W/m² | - |
| 1778016914 | 17.22° C | 76% | 1020.3 hPa | 0 mm | - | 203 W/m² | - |
| 1778016609 | 17.22° C | 76% | 1020.3 hPa | 0 mm | - | 206 W/m² | - |
| 1778016306 | 16.67° C | 77% | 1020.1 hPa | 0 mm | - | 190 W/m² | - |
| 1778016003 | 17.22° C | 75% | 1020.4 hPa | 0 mm | - | 191 W/m² | - |
| 1778015701 | 17.22° C | 75% | 1020.2 hPa | 0 mm | - | 211 W/m² | - |
| 1778015396 | 17.22° C | 76% | 1020.2 hPa | 0 mm | - | 207 W/m² | - |
| 1778015094 | 17.78° C | 75% | 1020.3 hPa | 0 mm | - | 219 W/m² | - |
| 1778014790 | 17.22° C | 76% | 1020.2 hPa | 0 mm | - | 220 W/m² | - |
| 1778014489 | 16.67° C | 77% | 1020.3 hPa | 0 mm | - | 224 W/m² | - |
| 1778014185 | 17.22° C | 76% | 1020.4 hPa | 0 mm | - | 220 W/m² | - |
* Rain latest hour (hover to see other rain measurements)
** Current wind speed in m/s (hover to see current wind gust speed)